Theta_e
308 308 308 308 308 309 309 309 310 310 310 310 310 310 310 310 310 310 310 310 310 310 311 311 311 311 310 310 309 310 309 310 311 311 315 319 317 315 313 311 312 311 311 312 312 313 313 314 315 315 315 317 319 319 319 318 318 320 323 324 321 322 322 323 321 320 321 319 317 317 317 317 317 316 316 316 316 316 317 316 316 316 316 315 315 316 317 318
308 308 308 308 309 309 309 309 310 310 310 310 310 310 310 310 310 311 310 310 310 310 311 311 311 311 310 309 309 309 310 310 312 315 317 318 315 312 312 311 312 312 311 312 312 314 315 315 315 314 316 317 318 319 320 319 318 322 323 322 322 323 321 320 319 318 320 319 317 317 317 317 317 316 316 316 316 316 316 316 317 316 316 315 315 315 315 315
308 308 308 308 308 309 309 309 310 310 310 310 310 311 310 311 311 311 311 310 310 310 311 311 311 311 310 309 309 309 310 310 313 318 318 316 313 312 312 312 312 312 312 312 313 315 315 316 314 315 316 316 317 319 320 320 318 321 323 323 322 322 319 318 318 317 318 318 318 317 317 318 317 317 316 315 316 316 316 316 316 317 317 315 315 315 315 315
308 308 308 308 308 309 309 309 310 310 310 310 310 311 310 311 311 311 311 311 311 311 311 311 311 311 310 309 310 309 310 311 314 317 316 314 313 313 313 312 312 312 312 312 312 314 315 316 314 315 316 315 316 318 319 319 319 320 321 322 320 319 319 318 317 317 317 318 318 317 317 317 317 317 317 316 316 316 316 317 316 317 317 316 316 316 315 315
308 308 308 308 308 309 309 309 310 310 310 310 310 311 311 311 311 311 311 311 311 310 311 311 311 311 310 310 309 309 312 314 316 316 315 313 313 313 313 312 312 312 312 312 312 313 314 315 314 315 316 316 316 317 318 318 318 319 319 319 318 317 318 317 317 316 317 318 318 317 317 317 317 317 317 317 317 317 317 318 318 318 318 317 317 316 316 315
308 307 308 308 308 309 309 309 310 310 310 310 311 311 311 311 311 311 310 311 311 310 311 311 311 310 309 309 309 310 314 316 316 316 314 312 314 313 313 312 312 313 313 312 313 314 314 314 315 315 316 316 316 315 317 317 317 318 318 317 317 317 318 317 316 316 317 318 317 317 317 317 317 317 317 317 317 317 318 318 317 318 318 318 317 317 316 316
308 308 308 308 308 309 309 310 310 310 310 310 311 310 311 311 310 310 311 310 311 311 311 311 311 310 309 309 309 310 314 316 314 314 313 312 314 313 313 313 313 313 313 313 314 314 314 315 315 315 316 316 316 316 317 317 316 316 317 317 316 317 317 316 316 315 316 317 316 316 316 317 317 317 317 317 317 317 317 318 317 317 317 317 317 316 316 316
308 308 308 308 308 309 309 309 310 310 310 310 310 311 311 310 310 310 310 311 311 311 310 310 311 310 309 309 310 310 312 315 315 313 313 312 313 313 313 313 313 313 313 315 316 315 315 315 315 315 316 316 316 317 317 316 315 315 317 317 317 317 316 315 315 315 315 316 316 316 316 317 317 317 317 317 317 317 317 317 317 317 316 316 316 316 316 316
309 308 308 308 309 309 309 309 310 310 310 310 310 311 311 310 310 310 310 310 311 311 310 310 310 309 309 309 311 314 314 316 315 312 312 312 313 313 312 313 313 313 314 315 315 316 315 315 315 316 316 316 316 316 316 316 316 316 317 317 317 316 316 315 316 315 316 316 315 316 316 317 317 317 317 317 317 317 317 317 317 317 316 316 316 316 316 316
309 308 308 309 309 309 309 309 309 310 310 310 310 310 310 310 310 310 310 310 310 311 310 310 310 309 309 309 311 314 317 316 313 312 312 313 313 313 312 313 313 313 316 315 314 316 316 316 317 316 316 316 316 316 316 317 317 318 318 318 317 317 316 316 316 316 316 316 315 316 317 317 317 317 317 318 318 317 317 318 317 317 317 316 316 316 316 316
308 308 308 308 309 309 309 309 309 310 310 310 310 310 309 309 309 310 310 310 310 310 310 310 310 309 309 310 312 314 316 314 312 312 312 313 313 312 313 313 313 313 316 316 314 315 316 316 316 316 316 316 316 317 317 317 318 318 318 317 317 317 317 317 317 316 316 317 316 316 317 317 316 317 317 318 318 317 317 317 317 317 317 316 316 316 316 316
309 308 308 309 309 309 309 309 309 310 310 310 310 309 308 307 308 309 310 309 310 309 309 310 309 309 309 309 313 315 316 313 312 312 312 313 313 313 313 312 313 313 315 316 314 314 315 315 316 316 316 316 316 316 316 317 318 318 318 318 317 317 317 317 317 317 317 317 317 316 317 318 317 318 317 317 318 318 317 317 317 317 317 317 317 316 316 316
309 308 308 309 309 309 309 309 309 310 310 310 309 307 306 306 307 308 308 308 308 308 309 309 309 309 309 311 313 314 315 313 312 312 312 313 312 312 313 313 314 314 314 316 314 314 315 315 316 317 317 317 316 316 316 317 317 318 317 318 318 317 317 318 318 318 317 317 316 316 318 320 318 318 317 317 318 317 317 317 317 317 317 318 317 317 317 317
308 308 308 308 308 308 309 309 309 309 309 308 307 306 306 306 306 307 307 307 308 308 309 309 309 309 309 313 315 314 314 313 312 312 311 313 313 312 313 314 315 315 315 314 314 314 314 315 315 316 317 317 317 316 317 317 317 318 317 318 320 319 318 318 318 317 317 317 317 317 318 319 318 319 318 318 318 317 318 317 317 318 318 318 318 318 318 317
308 307 307 308 308 308 308 309 309 308 307 306 306 306 306 306 306 306 306 307 307 308 308 308 308 310 310 313 314 313 314 313 312 312 312 312 313 313 314 315 315 316 316 315 315 315 314 315 315 316 316 316 316 317 318 317 317 318 318 318 320 319 319 319 317 317 317 316 316 317 318 318 318 318 318 318 318 317 318 318 318 318 318 319 319 319 319 318
308 307 307 308 307 308 308 308 308 307 306 306 306 306 306 306 306 306 307 307 307 307 308 308 308 310 313 314 314 313 314 314 313 312 312 312 313 314 315 315 315 316 316 316 315 315 315 316 317 316 316 316 317 319 319 318 318 319 318 319 320 319 319 319 317 317 317 317 316 317 318 319 318 318 318 318 318 318 318 317 318 318 319 319 319 319 319 319
307 307 307 307 307 307 307 307 307 306 306 306 306 306 306 306 306 306 307 307 307 307 308 310 310 310 312 314 314 313 313 313 313 312 312 313 313 314 315 315 316 316 316 316 316 316 315 316 317 317 316 317 317 318 320 319 319 320 319 319 320 320 319 318 318 317 317 317 317 317 317 318 318 317 318 318 318 318 318 318 318 318 319 319 319 319 319 319
307 307 307 307 307 307 307 307 306 306 307 307 307 307 307 307 307 307 307 307 307 307 309 311 311 311 311 312 314 314 312 313 313 313 312 313 313 314 316 316 316 316 316 316 317 317 317 316 316 318 318 317 317 318 320 320 320 320 320 318 319 320 318 318 318 317 317 317 317 318 317 317 318 317 317 318 318 318 318 318 318 319 319 319 319 319 319 319
306 306 306 306 307 307 307 307 307 308 308 308 308 308 308 308 308 308 308 307 308 309 310 311 311 312 312 311 313 314 312 312 313 313 312 312 314 314 315 317 316 316 317 317 318 317 318 318 317 321 320 317 317 318 320 320 317 317 319 319 319 319 318 317 317 316 316 317 317 317 317 317 317 317 317 318 318 318 318 318 318 318 318 318 318 318 318 318
306 306 306 307 307 307 308 308 308 309 308 308 307 307 307 308 309 309 309 309 309 311 312 312 311 313 313 312 313 314 313 312 312 313 313 312 314 315 315 317 317 317 317 319 319 317 318 320 321 322 321 318 317 317 318 318 316 316 318 319 319 318 318 317 317 316 315 317 317 317 317 316 317 317 317 317 318 318 318 318 318 318 319 319 318 318 317 317
307 307 307 307 308 308 308 309 309 308 308 307 306 308 310 310 310 311 310 309 310 312 313 312 312 313 314 313 313 313 313 313 314 314 313 313 314 316 316 317 316 317 318 319 319 317 318 321 322 321 319 317 317 318 317 316 316 316 317 318 319 319 318 317 317 316 315 317 318 317 317 316 317 318 317 317 317 317 317 317 318 318 318 319 319 318 318 318
308 308 308 308 308 309 309 309 309 308 307 306 306 310 312 311 312 312 311 310 310 311 312 312 312 313 314 312 312 313 314 314 315 315 313 313 315 316 316 316 316 317 318 318 318 318 318 319 320 317 317 317 317 318 316 316 317 317 318 319 320 321 319 317 317 316 315 316 318 317 317 316 316 317 316 316 317 317 317 317 317 318 318 318 319 319 319 318
310 310 309 309 309 309 309 309 309 308 307 306 307 311 311 310 312 312 311 312 312 310 310 311 312 312 312 312 312 313 315 315 316 315 313 314 315 316 316 315 316 318 318 318 318 319 319 317 317 317 317 317 316 316 316 316 317 319 320 318 320 323 320 317 316 316 316 316 316 317 318 316 316 318 317 315 316 316 316 317 317 318 318 318 319 319 319 319
313 312 310 310 309 309 309 309 308 308 307 306 307 310 309 309 310 310 310 313 313 311 309 310 312 312 312 313 313 314 315 315 316 316 313 314 315 315 316 316 315 317 317 316 317 318 318 316 315 316 316 317 317 317 317 317 317 320 322 320 320 321 321 319 317 317 317 317 318 320 321 322 321 320 320 319 318 317 317 318 318 318 318 319 319 318 318 319
314 313 313 311 310 310 309 309 309 308 308 306 307 308 308 308 309 308 310 312 313 313 310 310 312 312 312 313 312 314 315 315 317 316 313 315 316 315 317 316 316 316 317 317 316 316 317 315 315 317 317 317 318 318 319 319 317 319 323 323 321 320 321 321 321 320 318 318 321 321 322 327 324 318 319 319 319 320 319 319 319 319 319 318 319 318 318 318
315 315 315 313 312 311 310 311 310 307 308 307 306 308 307 308 309 309 310 312 313 312 310 310 311 311 312 313 313 313 313 314 317 316 313 315 316 315 315 316 315 316 316 316 316 316 317 314 316 320 320 321 321 319 321 322 317 316 322 325 323 322 324 321 320 321 319 319 322 320 320 323 319 313 316 316 317 318 318 318 319 318 320 319 318 318 318 318
319 318 317 315 315 314 314 316 313 308 309 308 307 307 307 308 310 310 311 313 314 313 311 311 310 311 312 312 313 312 312 314 316 316 315 314 316 315 314 315 315 315 315 317 318 318 318 317 320 321 322 324 322 320 321 320 318 319 323 325 323 323 324 321 320 321 321 322 323 321 319 321 319 315 316 318 317 317 317 318 318 317 319 319 319 320 319 320
320 320 320 318 317 316 316 318 316 312 312 311 308 307 307 309 310 310 311 313 315 314 312 311 310 312 312 311 312 312 313 314 314 316 315 314 316 315 313 314 314 315 316 318 318 318 318 320 323 322 322 323 321 322 325 320 319 323 324 323 323 324 324 322 321 321 322 323 324 323 321 322 323 322 320 321 319 318 318 319 319 317 318 320 320 321 320 320
320 321 321 320 319 318 317 318 318 316 315 313 309 307 308 309 310 311 312 313 316 313 311 311 311 313 313 311 312 312 312 314 315 316 315 314 316 314 314 315 314 315 315 316 319 320 319 317 319 321 321 320 320 322 325 324 322 321 321 323 323 324 323 322 322 322 322 321 322 326 324 319 320 322 320 320 321 321 321 320 319 319 319 321 320 320 320 319
319 321 321 320 321 319 318 318 318 317 316 314 310 307 308 310 310 312 312 313 316 314 310 310 311 313 313 311 312 312 312 314 315 315 314 314 315 314 314 314 314 318 318 318 320 318 315 313 314 318 319 318 318 317 319 323 321 319 322 324 322 322 322 321 322 321 321 321 322 326 325 318 318 321 319 319 322 323 321 319 320 322 321 319 319 318 319 319
317 319 320 320 320 320 319 319 319 319 318 315 310 307 309 313 313 312 312 314 317 316 310 310 312 312 312 311 311 311 312 315 315 314 314 315 315 314 315 315 316 320 319 319 320 318 316 317 316 316 316 315 317 317 317 319 319 320 322 322 320 321 322 320 322 322 320 320 321 324 325 320 319 320 318 318 320 320 320 320 322 324 321 318 317 318 317 318
314 315 317 318 319 320 320 319 319 320 319 314 309 309 312 314 314 314 314 314 316 316 313 313 313 312 311 312 313 311 313 315 315 314 315 316 315 314 314 315 316 319 319 318 319 319 320 321 318 316 315 315 318 321 319 317 319 322 322 320 319 319 321 322 324 326 323 319 319 321 322 321 319 317 318 319 319 319 319 319 320 320 319 318 318 318 318 318
313 313 313 314 316 318 319 320 320 320 320 313 308 313 317 314 312 314 315 314 315 316 315 314 314 312 312 313 314 313 314 316 315 314 316 316 316 315 315 316 316 317 318 317 319 320 320 321 320 318 315 315 318 320 319 318 320 321 320 321 321 318 319 321 322 324 324 320 320 320 319 321 319 316 318 319 317 318 318 317 318 318 317 318 318 317 319 319
312 312 313 313 313 314 316 319 319 319 320 313 309 316 317 314 313 314 315 316 316 316 316 315 315 313 313 314 315 314 315 317 315 315 317 317 317 316 315 315 316 316 315 315 319 320 319 321 321 319 317 317 318 318 318 319 319 318 318 320 321 318 317 318 318 321 324 322 319 318 319 323 322 319 319 317 316 317 317 317 318 317 317 317 316 316 317 317
311 312 313 314 315 314 314 315 316 318 318 314 312 316 315 314 316 315 315 317 316 316 315 315 315 314 314 317 318 314 314 318 316 316 318 317 316 316 316 315 315 316 315 314 318 319 317 320 321 318 316 316 317 318 317 318 318 318 318 319 321 320 316 316 318 320 321 320 320 321 323 323 321 319 317 316 316 316 315 316 317 317 316 316 317 317 316 316
309 311 313 314 316 315 313 314 314 316 316 313 312 315 314 316 319 318 317 318 316 316 315 315 316 315 315 317 318 315 315 318 318 317 319 318 316 316 317 316 315 314 315 314 317 319 318 320 321 318 315 314 316 318 318 318 318 319 319 320 321 321 317 317 319 318 317 317 319 322 321 319 316 316 316 316 316 315 314 315 315 315 316 316 317 317 315 316
308 309 311 314 316 315 314 315 315 315 315 313 312 313 315 318 319 318 319 318 316 316 315 316 317 315 315 317 317 316 316 318 319 318 318 318 317 317 317 317 315 314 315 314 316 319 319 320 320 318 318 315 314 316 317 316 318 322 322 320 320 321 319 318 318 319 319 317 317 317 316 315 313 314 317 318 316 315 316 316 315 315 316 316 316 316 316 317
306 308 309 311 314 316 315 316 316 315 315 314 313 313 314 315 317 318 318 317 316 316 316 317 318 316 316 316 316 316 315 317 318 317 317 317 317 317 316 317 317 315 315 314 315 318 319 318 317 316 318 317 314 315 318 316 315 319 320 318 319 321 321 319 317 316 317 316 316 317 316 315 314 313 315 316 317 317 318 318 317 316 317 316 317 317 318 318
304 308 309 309 311 314 315 315 315 315 314 313 313 313 313 312 314 316 316 316 317 318 317 317 317 317 317 316 316 316 314 315 317 316 316 316 316 317 316 317 319 317 315 315 315 317 318 318 318 315 315 316 315 316 319 319 317 317 317 318 320 321 320 321 318 315 316 316 315 316 316 316 315 314 314 316 317 317 316 318 319 317 317 317 317 318 319 319
303 307 308 308 309 311 313 313 313 313 312 312 312 313 313 313 313 314 314 315 317 319 319 320 319 318 317 317 318 317 314 315 317 316 315 315 316 317 316 316 318 318 316 315 315 317 317 317 318 316 314 317 318 317 317 319 318 317 318 319 320 319 319 322 320 317 317 316 315 315 315 315 314 314 317 317 317 318 319 321 321 318 316 316 316 318 319 319
304 306 307 309 308 309 311 312 311 312 312 312 311 312 314 314 314 314 314 314 315 316 317 319 320 320 319 319 319 318 316 315 317 316 316 315 316 318 318 316 317 318 317 317 317 317 316 315 318 318 316 317 318 317 316 317 317 316 316 317 318 318 319 320 319 318 318 317 317 317 317 317 315 315 318 317 316 319 320 320 318 316 315 315 316 318 320 318
304 304 306 309 308 308 311 311 311 312 313 313 312 312 313 315 315 315 315 314 314 315 315 316 318 320 320 321 322 321 317 316 317 318 317 316 316 319 319 316 316 317 317 317 317 316 315 315 318 319 318 317 317 317 317 318 319 318 316 315 316 317 317 318 318 319 321 320 319 319 319 318 314 314 317 316 315 317 317 316 315 315 315 315 316 318 318 317
303 304 306 308 308 308 311 312 312 312 313 313 313 313 314 315 315 316 315 314 314 315 315 316 317 317 318 319 320 321 319 318 319 318 318 318 318 317 316 315 316 316 316 318 318 316 316 317 317 317 318 318 318 318 317 317 318 320 320 318 317 316 317 319 319 320 322 322 320 319 318 317 314 316 316 314 315 316 316 316 315 315 316 315 316 317 317 316
302 303 305 307 308 309 311 311 312 312 312 313 313 313 314 315 315 315 315 314 314 315 316 316 316 316 317 317 318 319 319 318 319 319 318 319 319 316 314 315 316 316 316 318 318 316 317 318 319 318 318 319 319 319 319 318 318 319 320 320 320 319 320 321 321 319 320 322 322 320 318 316 316 320 319 316 317 317 315 316 316 315 316 315 315 316 316 316
301 302 303 305 308 310 311 310 310 311 312 312 313 313 313 314 314 315 315 315 314 315 315 315 315 315 316 317 317 317 317 316 318 319 319 319 318 316 315 315 315 315 315 316 316 316 319 319 318 317 318 319 320 322 322 320 318 317 319 320 320 321 322 322 322 320 319 320 321 319 317 316 315 318 318 318 319 318 315 315 316 316 316 316 316 316 316 316
301 301 302 304 307 309 310 310 310 311 311 311 312 313 313 314 314 314 315 315 314 315 315 315 315 315 316 317 316 316 316 316 317 318 318 318 318 317 315 314 314 314 314 314 314 317 320 319 318 317 317 317 319 322 323 320 318 317 318 319 319 320 321 321 321 321 319 318 318 317 317 316 315 315 315 315 316 317 316 315 315 316 316 316 316 317 317 317
302 302 302 303 305 307 308 309 310 310 311 311 311 312 313 313 314 314 314 314 314 315 315 315 315 316 317 317 316 316 316 316 316 316 316 317 318 317 314 313 313 312 312 312 313 318 320 318 317 318 317 318 319 320 320 319 318 318 317 318 318 319 321 321 320 319 317 318 318 317 317 317 316 315 315 315 316 316 315 314 315 316 316 316 316 317 317 317
302 302 302 303 305 306 307 309 309 309 310 311 311 311 313 313 313 313 313 313 314 315 315 315 315 315 316 316 317 317 316 316 316 315 315 316 318 318 316 315 313 311 313 313 312 317 320 316 316 317 317 318 318 318 319 319 318 318 318 319 319 319 320 320 319 318 317 318 317 316 317 318 316 315 315 315 316 316 314 314 315 316 316 316 316 316 316 316
302 302 302 302 303 305 306 308 309 308 309 310 310 311 312 312 312 313 313 313 313 314 314 315 314 314 315 316 316 317 317 317 317 315 315 316 317 318 318 318 314 309 312 315 313 314 318 317 317 317 317 317 317 317 318 318 317 318 318 319 320 320 320 319 318 317 317 318 317 316 317 317 315 315 315 314 315 314 314 315 315 315 315 316 316 316 316 317
302 301 302 303 303 304 305 307 308 308 308 309 310 310 310 311 312 312 313 313 313 313 313 314 314 314 315 315 315 316 316 317 317 317 316 317 317 317 317 318 316 310 309 314 314 313 315 317 316 315 316 317 316 316 317 317 317 317 318 319 319 320 320 318 318 318 318 317 317 317 317 316 315 315 314 314 315 314 314 315 315 315 316 315 316 316 316 317
301 301 302 303 303 303 304 306 307 308 308 308 309 309 309 310 310 310 312 312 313 313 313 313 314 314 314 315 315 315 315 315 316 315 316 316 315 315 316 316 317 314 311 313 314 313 314 315 314 314 316 317 316 316 317 316 316 317 317 317 317 318 318 318 317 318 318 318 318 317 317 317 315 314 314 314 314 314 314 314 315 315 316 315 316 316 317 317
300 301 302 302 303 303 303 305 306 307 307 307 308 308 309 309 309 309 310 311 312 312 312 313 313 313 313 314 314 314 314 314 313 312 313 313 312 313 314 314 315 315 312 312 314 313 313 315 315 314 316 317 316 316 317 316 316 316 316 316 315 315 316 316 316 317 317 317 318 318 317 316 315 315 315 315 315 314 314 315 315 315 315 316 316 316 317 317
Wind_Speed
19 19 18 18 17 17 16 15 14 13 13 13 13 12 12 12 12 12 11 11 11 10 11 11 11 9 8 6 6 5 6 7 6 8 8 6 9 9 7 8 8 8 9 7 7 5 5 5 4 5 6 7 5 6 6 5 7 4 0 1 3 4 2 2 3 3 5 6 6 11 13 8 6 8 6 4 4 5 4 5 6 6 7 8 5 6 7 6
20 19 19 18 17 17 16 15 15 14 13 13 13 12 12 11 11 11 11 11 11 11 11 11 11 10 8 6 6 6 6 7 6 7 8 7 8 9 8 8 8 8 8 8 7 5 3 3 5 7 7 7 6 6 5 5 7 3 1 3 4 1 3 6 8 8 6 5 8 11 11 7 8 11 9 5 6 9 6 6 9 8 8 11 10 9 7 7
20 20 19 19 18 18 18 16 15 14 13 12 12 12 11 11 11 11 11 12 11 11 12 12 12 10 8 6 6 6 5 7 6 7 10 8 8 9 8 8 8 8 8 8 9 6 5 4 6 8 8 8 7 7 7 5 6 3 1 2 2 1 5 11 13 10 7 4 8 10 8 4 8 11 9 5 6 10 9 9 12 12 13 13 13 13 11 9
19 21 20 20 19 19 18 17 16 15 14 13 12 12 11 12 11 12 12 12 12 12 12 12 12 11 8 7 6 5 5 5 5 9 10 8 9 9 8 8 8 8 7 7 7 8 8 4 6 9 7 6 8 7 8 7 5 2 1 1 2 5 5 9 11 8 6 5 6 10 6 3 6 8 8 6 4 6 9 11 13 15 18 16 15 14 14 13
18 21 21 21 20 19 18 17 17 15 14 14 13 13 12 12 12 12 12 13 13 13 13 13 12 11 9 8 6 6 7 3 4 10 10 8 9 9 8 7 7 7 6 7 6 6 7 5 5 7 7 4 8 6 7 10 6 2 2 3 5 5 4 5 5 6 6 5 6 9 4 3 7 6 7 7 4 2 3 5 8 10 14 16 14 13 13 14
18 20 21 22 21 20 18 17 16 16 15 15 14 13 13 13 13 13 13 13 13 13 13 13 13 12 9 8 7 8 9 1 2 10 10 9 9 9 8 7 7 6 6 7 6 5 6 6 7 8 7 4 8 6 5 10 7 2 1 6 7 5 5 3 2 5 5 4 4 5 2 3 5 4 8 11 10 4 3 2 2 2 6 9 10 9 11 12
19 20 21 21 20 19 18 17 16 16 15 15 14 13 13 13 13 13 14 14 14 14 13 13 13 12 10 9 8 9 10 5 5 7 9 10 10 10 9 7 6 5 6 6 5 4 5 7 9 9 8 4 8 7 5 7 8 3 1 5 5 6 6 2 2 4 4 3 2 3 2 2 3 3 5 11 15 11 7 9 7 3 3 6 7 7 8 9
19 20 19 19 18 18 17 16 16 15 14 14 13 13 13 13 13 13 14 14 14 14 13 13 13 12 9 9 8 7 10 8 5 6 9 10 12 11 10 9 6 5 6 6 5 5 5 8 10 9 5 2 5 7 6 6 5 5 1 7 4 6 6 3 4 3 3 1 1 1 2 5 5 3 4 11 16 14 13 14 13 10 7 7 9 9 9 10
19 19 19 18 18 18 17 16 16 15 14 14 14 13 13 13 13 14 14 14 14 14 13 13 13 12 10 10 8 4 8 10 6 7 10 12 13 12 10 8 7 5 3 4 7 6 6 7 8 7 2 0 4 6 6 4 2 3 5 9 7 7 6 5 5 4 3 1 1 2 5 6 5 4 7 14 18 15 13 14 15 14 13 12 13 14 14 14
18 19 19 19 19 18 17 16 16 15 14 14 14 13 13 13 13 14 14 14 14 14 13 14 13 12 10 9 7 3 5 10 8 9 12 13 13 11 10 8 6 6 2 2 5 5 6 3 2 4 2 1 5 4 3 1 1 3 8 9 8 8 6 5 5 5 4 2 1 2 4 4 5 2 5 8 10 12 14 14 15 15 15 15 16 17 17 17
19 20 21 20 19 18 17 16 16 15 14 14 14 13 13 14 14 14 14 14 15 14 13 14 13 12 11 10 8 4 5 10 10 11 13 13 12 10 9 7 5 5 3 1 4 6 6 3 0 2 1 2 5 4 3 4 2 5 9 9 7 6 5 4 5 6 4 2 2 2 6 3 4 2 11 11 5 7 14 15 14 16 16 16 16 17 18 19
21 22 22 22 20 19 17 17 16 15 14 13 13 13 13 14 14 14 14 15 15 14 14 15 13 12 11 11 10 7 7 12 12 12 13 13 11 8 7 6 5 4 5 2 4 7 6 4 3 2 1 4 5 3 3 4 3 5 6 4 5 5 4 7 6 6 5 2 2 1 5 6 5 10 21 18 12 9 10 12 11 13 14 13 13 16 18 19
21 22 23 23 21 19 18 17 16 15 14 13 12 12 13 13 14 14 14 15 15 15 15 15 13 12 11 8 9 8 7 12 13 13 14 13 10 8 5 4 4 4 6 5 4 6 6 6 5 3 2 2 4 5 4 5 4 4 4 1 4 3 3 9 9 6 5 3 3 1 2 6 6 17 23 14 15 14 10 12 11 11 12 11 12 14 17 19
21 21 23 23 21 19 18 17 16 15 13 12 12 12 12 12 13 14 14 15 15 15 15 15 14 14 11 5 5 8 9 11 14 14 14 12 9 7 5 4 4 4 5 5 5 6 6 7 5 3 3 5 6 7 5 4 2 2 2 1 2 2 2 6 8 8 5 3 5 2 1 7 4 8 14 11 14 14 13 14 13 13 14 13 14 15 17 19
20 20 21 21 20 19 18 17 16 14 13 12 12 11 11 12 12 13 14 14 15 15 15 15 14 12 8 4 5 8 10 11 13 14 13 12 9 6 5 5 5 5 4 5 6 6 7 7 5 4 5 6 7 6 3 3 2 1 2 2 3 2 1 2 4 7 4 2 7 4 2 8 6 3 10 12 12 11 11 13 12 13 13 13 14 14 17 19
21 20 20 20 19 19 18 17 16 14 14 13 12 11 11 12 12 13 13 14 14 15 14 13 14 11 5 4 7 8 10 11 13 14 13 12 10 7 6 6 6 5 5 6 5 7 8 7 5 5 6 4 3 3 3 3 2 2 2 2 3 3 3 2 1 2 3 3 5 6 3 5 3 5 9 9 9 9 9 11 11 12 13 13 13 15 17 18
22 21 20 19 18 18 17 16 15 15 14 13 12 12 12 11 12 12 13 14 13 14 13 10 11 10 5 3 6 8 11 12 13 14 13 12 10 9 8 6 6 7 7 7 6 7 7 5 5 4 3 2 3 3 3 2 3 3 3 3 2 3 3 2 1 1 3 2 3 5 5 6 7 5 7 6 7 9 10 12 13 13 13 13 13 15 17 19
21 21 19 19 18 17 17 16 15 15 14 14 13 12 12 12 13 13 13 14 13 13 12 9 9 6 5 8 7 8 13 12 13 14 14 13 10 10 10 6 7 8 7 6 5 5 4 4 4 2 2 3 4 4 4 3 2 2 4 4 3 2 3 2 1 2 4 1 3 5 6 9 11 12 14 15 13 14 14 15 17 17 18 18 18 19 20 21
19 19 18 18 18 17 17 17 16 15 15 15 14 13 13 12 12 13 14 14 13 8 4 10 13 4 0 11 13 10 12 12 13 14 15 14 11 10 10 7 7 7 6 4 2 3 3 3 1 1 3 4 4 4 4 1 3 2 1 1 2 2 2 1 3 1 1 1 4 7 7 9 11 11 14 18 18 18 18 18 20 22 23 23 23 24 25 26
17 17 17 17 17 18 17 17 17 17 17 17 17 15 12 12 8 6 12 15 14 6 1 10 16 5 3 11 17 13 12 13 13 15 16 15 13 11 8 8 7 4 3 3 3 2 2 1 2 3 5 6 7 6 2 3 5 3 3 2 2 2 1 3 4 1 2 1 5 7 8 10 11 10 11 16 17 16 16 17 20 22 22 24 24 27 29 30
16 16 16 17 17 18 17 18 18 18 19 19 21 16 9 12 7 4 10 11 14 11 3 9 14 8 2 7 16 14 12 12 11 15 16 15 16 11 8 8 5 3 2 5 5 2 2 1 4 6 3 2 4 4 4 3 3 3 2 3 3 1 0 3 3 1 1 2 4 6 8 10 9 9 11 14 13 14 17 17 20 23 23 24 25 29 32 31
16 15 16 16 17 17 17 18 17 18 20 20 24 16 7 14 9 7 13 6 12 17 9 8 11 8 7 7 14 15 10 9 8 13 16 17 16 9 9 9 3 3 4 7 6 2 1 3 5 3 3 5 5 5 5 3 3 3 1 1 2 2 1 3 3 0 1 1 4 6 7 10 10 9 12 15 15 19 23 23 24 24 23 24 26 30 31 28
14 15 16 15 16 17 17 17 17 18 20 21 24 15 6 13 10 9 15 4 7 18 13 9 8 7 10 10 14 15 10 8 7 13 18 19 16 10 10 9 4 4 5 4 4 3 2 4 3 3 5 5 5 4 3 2 1 2 2 1 2 2 1 1 1 1 3 4 4 6 6 10 10 9 12 20 26 28 26 24 24 24 22 24 27 30 30 26
12 14 15 15 15 16 16 17 18 18 20 22 24 17 6 9 9 8 13 3 0 11 14 12 9 8 11 11 15 15 9 7 7 14 21 19 15 10 7 8 6 4 4 5 6 4 2 1 1 4 2 1 4 3 2 2 2 4 5 4 4 2 3 2 1 2 4 3 2 5 5 7 7 5 7 11 18 21 21 19 20 21 22 24 28 30 29 26
11 13 14 16 15 15 15 15 17 18 20 20 23 18 6 6 8 7 9 3 1 6 10 13 10 9 12 11 14 13 6 5 7 14 23 19 13 9 4 6 6 4 5 7 6 5 2 1 1 4 1 1 4 3 4 4 2 4 5 4 4 2 4 5 3 3 3 2 1 2 3 5 5 6 7 6 4 8 12 13 16 21 21 23 27 29 29 27
9 10 12 15 14 15 13 11 14 17 18 19 21 20 10 4 7 7 6 1 2 4 6 10 10 9 12 12 14 12 3 4 8 13 23 19 13 9 4 3 3 1 5 5 2 2 1 1 1 4 4 3 2 2 4 5 1 3 3 3 2 2 6 4 3 2 1 3 3 2 0 5 7 10 10 8 7 9 9 9 15 21 20 22 26 25 24 22
12 11 10 11 12 14 11 7 12 14 13 16 20 20 13 7 7 7 5 1 3 6 7 8 9 9 12 13 16 10 1 7 10 10 21 19 13 10 4 3 4 1 2 2 2 0 3 3 2 3 4 4 3 2 3 7 2 2 4 4 3 5 5 3 2 0 2 3 3 3 3 4 6 10 10 8 10 10 9 9 14 19 20 22 22 19 15 13
20 16 13 11 10 12 10 7 9 12 12 14 18 18 14 10 8 6 4 1 2 7 6 6 9 10 13 16 18 9 5 11 8 7 20 20 13 8 3 3 5 5 3 3 3 1 2 5 5 5 4 3 4 1 2 7 3 2 4 2 3 5 4 3 2 1 1 4 3 3 3 3 5 7 8 7 9 8 8 10 11 16 20 17 14 12 10 10
22 21 19 15 10 10 11 9 10 13 12 12 15 18 15 12 8 3 1 2 3 5 4 8 9 10 14 15 13 8 7 6 1 7 18 16 12 6 1 2 3 6 7 4 3 1 2 2 2 4 5 3 3 3 3 2 3 4 4 3 5 5 4 3 2 1 2 2 4 5 5 3 5 5 5 5 7 7 8 9 6 5 8 9 9 10 10 8
16 20 22 19 15 14 13 10 11 12 10 11 15 19 17 12 6 2 3 3 2 3 4 8 8 10 14 11 6 6 6 3 4 11 12 9 10 5 2 1 2 2 4 1 3 2 2 2 2 0 2 3 5 5 6 3 4 6 4 4 4 3 4 2 1 3 2 3 4 6 10 5 4 4 5 4 4 4 5 5 1 6 9 9 7 7 6 5
11 15 18 19 20 18 14 12 12 11 8 9 15 21 17 8 1 4 5 1 1 2 4 4 6 11 14 10 6 7 6 4 8 12 6 4 6 3 2 2 2 4 3 2 1 1 2 2 1 1 3 5 6 4 6 5 3 4 2 3 4 2 4 3 2 3 0 4 2 2 4 5 6 4 1 2 2 2 1 1 4 7 9 8 5 4 4 4
13 12 12 14 19 19 17 15 13 13 9 8 17 21 13 4 2 5 4 2 0 3 5 6 7 10 12 9 6 7 6 6 8 9 5 5 5 4 5 5 4 3 0 3 2 1 1 3 3 3 2 4 5 4 4 5 3 1 2 5 4 1 1 1 1 1 3 5 3 4 3 2 8 6 3 6 6 2 2 1 3 3 4 4 3 4 7 10
15 15 12 12 14 17 18 16 15 14 10 11 18 14 5 3 6 7 6 3 1 1 5 8 9 10 11 9 6 7 6 4 7 7 5 6 5 6 7 7 8 5 2 5 4 1 1 2 3 4 1 6 6 4 3 1 2 4 5 6 5 3 2 3 4 2 3 4 3 4 2 3 6 5 5 7 7 6 4 4 4 6 7 6 6 9 13 15
13 14 14 14 13 13 14 16 17 14 11 15 15 7 3 6 7 8 8 4 2 2 3 6 8 10 10 6 5 8 5 3 8 7 5 6 4 5 6 7 9 6 1 3 4 6 4 3 5 5 4 10 9 6 7 5 5 7 5 5 5 5 4 4 3 3 3 1 3 3 1 3 3 3 4 4 4 6 9 9 8 9 9 9 11 14 17 18
13 13 14 14 13 13 14 16 16 10 9 14 9 3 8 9 5 7 7 3 3 3 4 6 8 9 8 3 2 6 3 2 8 7 5 7 6 6 7 7 10 7 4 4 3 5 6 5 4 5 8 15 12 9 9 7 3 5 2 3 5 4 2 1 2 3 2 1 2 2 3 4 4 7 10 8 8 9 11 10 7 10 12 11 14 18 17 16
13 14 15 14 15 16 16 16 14 9 9 11 7 3 9 5 1 3 3 2 4 6 7 7 5 5 6 2 1 3 1 2 6 5 4 6 6 8 8 7 11 11 8 6 2 3 5 3 1 2 5 11 8 5 6 5 3 3 3 4 4 2 3 2 2 1 4 2 4 3 5 6 3 9 10 10 12 11 11 10 10 17 19 13 15 19 21 20
12 13 15 15 16 16 17 17 14 14 12 9 5 6 4 1 1 0 3 2 7 11 8 5 4 5 6 4 2 5 2 2 5 4 3 4 4 8 10 7 12 15 13 10 3 1 5 2 3 1 2 3 1 1 1 2 3 4 4 4 1 3 2 2 1 2 1 5 4 3 7 6 3 7 4 1 4 4 6 9 11 16 16 13 15 19 19 19
11 10 12 17 18 17 18 18 17 19 16 8 4 6 1 1 2 3 6 4 5 10 6 4 5 5 6 6 5 7 6 4 5 4 4 5 3 8 11 8 10 14 17 15 5 1 3 2 3 2 1 1 3 2 1 4 5 4 2 2 2 1 2 2 3 2 3 5 4 4 8 6 6 10 5 4 5 4 6 8 8 10 11 11 11 12 12 14
9 6 8 16 21 19 18 16 17 19 12 5 5 6 3 3 6 5 5 6 2 3 5 6 6 4 6 7 6 8 8 7 7 6 4 4 3 8 12 9 7 12 18 16 7 1 3 3 3 3 3 0 2 1 5 1 3 4 4 2 2 2 3 3 3 3 3 4 5 6 6 6 9 9 5 6 8 8 8 7 5 5 5 2 4 7 11 13
8 4 5 12 17 20 18 13 14 13 5 2 4 4 4 4 8 12 10 5 4 1 2 4 5 5 6 7 5 7 8 8 9 7 5 6 5 4 8 10 6 7 13 14 8 3 3 3 3 2 4 0 1 4 7 6 4 1 1 2 2 1 2 1 2 2 3 4 4 5 6 8 8 4 4 7 5 4 2 1 1 4 6 10 11 10 11 11
7 2 4 9 13 18 19 11 8 6 1 2 4 3 5 5 5 11 15 11 2 3 3 1 1 1 3 6 4 5 7 7 8 6 4 7 7 3 4 9 8 7 8 8 7 5 3 3 4 2 1 3 5 6 8 8 9 8 6 7 8 5 4 2 4 3 3 3 3 4 5 11 8 3 3 4 2 4 5 6 4 8 13 17 15 11 9 8
6 2 3 9 12 18 19 9 3 4 2 4 6 6 8 5 3 7 11 11 7 1 3 2 0 1 1 2 1 3 5 6 7 7 6 7 8 5 5 8 12 14 10 4 7 8 5 3 3 3 4 4 3 3 4 4 4 5 6 7 7 6 5 5 5 3 2 2 3 2 4 13 13 4 2 6 4 2 1 4 10 17 19 18 14 11 8 9
7 3 3 8 12 18 17 6 3 5 3 5 9 9 10 7 5 7 7 8 7 3 2 1 1 1 1 1 2 2 1 3 5 5 5 6 4 2 6 8 11 13 9 3 5 6 4 3 3 2 1 1 3 3 2 3 2 1 5 5 4 5 6 5 4 3 2 3 3 3 5 12 16 5 2 8 6 4 6 10 15 18 17 15 14 14 13 14
8 5 3 7 14 19 14 5 5 7 5 6 7 8 9 8 8 8 7 8 7 4 4 4 2 3 2 1 2 1 1 0 2 2 1 2 1 3 6 9 8 7 5 1 4 7 5 3 4 4 2 0 2 2 3 3 1 2 4 4 5 6 6 4 2 2 2 6 8 6 6 11 13 3 3 1 4 4 9 12 13 14 13 14 15 15 16 18
7 6 5 8 16 21 15 6 4 6 7 8 7 8 9 7 9 13 10 9 11 7 5 6 7 6 4 2 2 2 2 0 1 2 3 1 1 4 4 5 4 3 2 3 6 11 7 2 5 6 6 6 3 2 3 2 2 2 4 6 8 8 8 5 3 4 5 9 10 7 7 11 14 9 4 2 3 2 7 7 7 11 13 15 17 18 20 22
6 6 4 6 13 18 16 12 7 3 6 10 7 8 11 7 7 14 13 10 13 12 8 8 11 9 5 5 5 6 6 5 3 2 2 1 1 2 2 2 3 4 5 6 6 7 2 1 4 6 7 7 4 3 4 4 5 4 7 8 9 9 9 6 4 6 9 8 9 11 10 13 19 17 14 10 5 6 8 8 11 15 16 17 17 18 20 20
6 5 5 6 8 11 12 13 11 6 5 10 6 5 12 10 5 9 12 10 13 15 9 5 9 9 8 9 8 7 8 7 6 6 6 4 0 2 1 2 4 4 5 5 4 4 3 1 5 6 7 7 3 0 2 5 6 7 9 9 8 8 8 8 9 12 10 6 9 12 10 12 18 20 17 11 7 9 10 10 15 17 18 20 21 21 21 23
8 6 9 10 7 5 7 10 14 12 9 8 6 5 9 12 9 7 8 8 11 13 8 4 8 10 10 11 8 6 8 9 8 9 9 6 2 1 1 2 3 3 3 3 3 4 4 3 4 4 6 8 5 2 2 1 1 3 4 6 8 9 10 11 14 15 10 7 10 11 9 11 15 19 17 10 7 12 15 17 21 22 24 28 31 31 30 31
11 8 11 13 7 5 9 12 12 13 11 8 6 7 9 13 14 10 8 6 6 10 9 7 9 12 11 10 8 6 8 8 8 8 8 6 5 4 2 1 1 2 4 3 2 2 2 2 1 1 4 8 7 3 4 5 4 3 4 4 4 7 11 13 15 15 12 11 13 15 16 17 16 15 15 17 20 23 25 28 29 29 31 32 31 30 30 32
16 10 9 10 7 6 9 11 10 9 10 9 7 7 7 11 14 11 9 10 7 7 10 11 10 11 12 11 9 9 9 8 6 6 7 7 5 4 4 3 2 2 3 3 0 0 1 2 2 4 1 8 9 6 5 6 5 5 5 6 7 10 12 12 11 9 9 12 15 16 17 17 15 12 14 27 33 26 23 28 28 29 33 31 25 24 27 31
22 15 9 7 5 5 7 6 8 7 7 8 9 9 8 10 12 9 8 13 13 8 10 13 11 7 9 11 12 11 10 8 3 2 5 5 3 1 3 4 6 5 3 3 3 3 3 2 2 4 2 6 7 7 6 6 5 5 7 10 13 13 11 10 8 7 10 13 13 13 12 12 13 11 13 26 30 21 20 27 29 32 34 28 22 24 29 32
28 21 15 8 4 7 5 3 5 7 8 10 12 12 10 9 9 7 5 12 18 16 14 15 11 6 6 10 13 13 12 7 4 7 7 4 4 3 2 3 3 6 5 4 3 4 5 4 3 3 3 6 6 6 6 4 3 4 10 15 17 14 11 11 10 13 16 14 10 10 11 11 13 13 14 18 20 18 21 27 31 34 32 25 21 25 31 33
Wind_Direction
191 189 186 187 186 184 184 183 185 190 194 195 196 200 205 209 212 215 216 215 213 207 203 200 197 195 195 194 187 192 189 187 186 175 179 202 210 214 205 186 183 181 175 171 161 146 132 126 144 152 157 171 175 186 184 184 181 172 119 197 236 235 239 171 108 76 135 139 146 167 173 170 152 169 184 178 189 189 163 168 193 211 215 226 220 195 208 218
192 189 188 188 188 186 184 184 186 191 197 197 197 200 205 210 213 215 218 216 214 208 203 201 198 195 197 196 189 192 190 191 184 184 214 229 209 206 196 186 185 182 179 173 157 139 142 175 176 164 176 183 170 174 179 175 179 190 184 203 243 220 21 28 60 54 54 122 154 166 189 194 155 165 175 178 195 191 191 191 195 206 217 226 226 224 219 211
193 190 189 189 189 190 186 185 187 190 196 199 199 200 203 209 213 216 218 217 214 208 204 201 198 195 198 196 191 193 187 192 198 210 226 225 205 200 194 192 192 186 185 180 167 177 213 208 187 193 198 184 169 177 175 177 192 218 241 196 265 25 46 40 61 69 46 72 141 152 192 201 140 153 168 197 202 184 198 200 188 193 209 224 223 224 220 208
197 192 190 190 191 193 190 186 187 190 194 198 200 200 203 208 211 215 216 216 213 208 203 199 197 194 196 196 191 189 181 195 218 219 222 217 203 198 197 197 193 190 187 189 182 190 196 169 188 206 221 194 164 178 179 180 185 178 219 169 346 354 44 47 58 79 70 62 102 130 168 199 139 147 167 195 221 198 209 209 204 203 207 218 218 217 218 216
201 197 193 192 192 194 193 189 188 189 193 197 200 201 203 206 209 213 214 214 212 208 202 197 196 193 194 195 190 187 177 176 217 212 218 215 202 196 196 190 189 190 183 186 178 186 182 169 205 212 240 205 149 176 180 175 182 159 170 99 44 4 47 50 54 88 83 78 106 125 145 161 146 159 185 199 232 201 153 175 201 207 204 209 210 207 211 218
202 201 198 195 193 194 193 192 191 191 194 197 201 204 205 207 208 211 212 213 210 207 202 196 194 192 193 193 192 192 185 218 265 208 211 208 198 191 186 178 179 181 182 180 162 177 186 190 210 209 237 217 161 182 145 161 191 207 153 88 57 33 79 61 48 111 98 81 109 128 132 132 147 204 214 215 226 206 97 92 175 159 177 192 201 204 209 219
201 201 202 198 194 193 193 194 195 195 197 199 203 207 208 210 209 210 210 211 209 206 201 196 193 192 193 192 194 202 207 269 296 213 204 199 190 182 175 166 161 160 171 169 157 185 197 203 210 210 230 222 176 176 122 153 185 216 194 99 71 61 92 88 81 143 139 83 71 100 112 192 207 232 217 217 225 227 251 272 273 257 176 183 204 213 222 230
203 201 201 199 195 194 193 196 198 199 200 202 206 209 211 212 210 209 208 208 208 204 200 195 192 191 193 193 193 210 222 243 267 212 196 189 181 175 170 162 150 146 162 164 175 204 214 218 219 218 232 232 178 162 145 158 180 232 161 115 113 84 95 102 99 141 155 128 304 137 234 248 228 244 255 237 232 232 244 255 261 256 235 222 231 236 236 237
206 200 196 196 195 194 195 197 199 201 202 204 207 209 210 211 210 208 206 206 204 203 199 193 191 191 194 194 194 221 227 225 232 202 186 178 174 172 171 168 161 143 136 172 182 196 212 225 229 224 252 88 154 144 165 180 190 218 121 118 128 108 111 112 108 124 137 180 256 220 247 233 216 261 271 256 249 240 234 240 249 252 243 236 241 247 250 249
204 195 193 195 194 194 196 197 200 202 203 207 210 210 210 210 209 208 205 203 202 201 196 192 190 192 194 194 201 234 221 210 206 188 179 175 173 175 176 176 175 152 113 216 196 195 213 249 269 212 263 79 135 120 152 165 84 127 110 112 119 118 131 129 126 128 124 129 143 254 277 220 184 239 262 256 253 229 218 224 234 244 247 246 247 250 254 254
200 192 191 193 193 194 196 197 199 202 206 210 212 213 212 209 207 206 205 202 201 198 193 192 190 194 194 191 208 238 214 200 189 180 177 177 177 181 187 186 188 172 146 231 219 200 213 248 193 167 238 137 125 92 89 107 109 129 118 108 119 136 141 146 144 148 162 112 127 284 306 259 144 180 244 233 224 209 208 218 226 238 247 250 250 249 251 253
201 193 190 191 193 194 194 196 198 201 206 211 214 215 213 210 206 204 203 201 200 196 191 190 190 194 194 197 222 249 222 197 183 178 179 181 184 189 198 197 200 194 167 182 226 201 205 209 164 93 175 150 127 111 102 117 121 146 150 128 147 159 162 181 169 167 194 136 116 334 308 262 179 222 248 236 222 218 203 213 217 227 243 249 247 241 244 250
206 196 191 192 192 193 194 195 198 202 206 209 212 214 212 210 205 201 202 200 197 194 190 190 190 192 193 203 228 240 218 193 182 180 183 184 189 193 194 188 189 192 182 187 199 189 193 183 150 103 131 98 96 121 114 122 130 165 204 241 154 169 205 187 165 166 194 132 139 93 308 262 210 228 244 231 218 218 208 218 217 224 240 249 248 239 240 246
208 200 193 192 191 192 194 194 197 201 203 206 207 207 209 206 203 200 198 196 194 192 189 189 189 192 198 214 226 214 199 191 186 181 184 187 185 185 175 161 161 161 179 184 172 172 181 173 156 130 85 65 102 123 107 125 162 168 175 300 206 195 191 168 150 163 184 147 166 150 240 266 294 226 217 198 205 211 215 228 231 236 240 241 243 240 241 247
205 201 195 193 191 191 193 194 196 197 199 200 198 199 201 200 199 196 193 192 191 190 189 190 189 191 203 225 212 197 185 188 190 183 184 184 175 168 159 147 140 140 151 156 160 167 163 159 154 127 95 92 122 134 126 154 216 180 140 263 238 220 167 144 150 164 172 160 178 176 229 261 285 165 173 186 197 203 221 236 237 238 238 236 237 238 245 253
198 197 197 195 192 191 192 193 194 193 193 192 191 191 191 193 192 189 188 186 187 188 186 188 192 193 200 215 201 189 181 183 186 183 182 180 171 160 149 139 125 124 130 131 148 159 153 147 127 119 118 121 155 185 161 150 237 215 180 239 210 194 185 168 277 178 137 126 185 211 253 279 266 165 166 185 201 209 228 244 246 241 237 235 235 237 245 252
191 192 196 196 193 193 192 193 193 190 188 186 185 183 182 183 182 183 182 181 183 182 179 179 188 201 228 218 190 187 189 186 183 182 177 176 172 152 137 131 121 114 114 119 129 138 141 140 126 126 137 167 225 211 159 177 232 203 194 249 223 174 188 174 330 219 162 178 231 221 231 266 271 238 211 210 216 214 221 240 247 242 236 236 237 240 244 248
189 188 192 193 193 193 192 193 191 186 183 178 177 176 176 176 176 177 175 177 175 170 177 177 171 194 237 206 186 191 197 190 182 182 175 173 171 156 142 128 126 120 118 122 126 135 141 146 145 147 162 213 237 193 176 205 220 183 182 221 213 194 244 235 115 175 179 203 260 233 232 251 263 267 261 257 245 225 225 238 243 243 243 247 249 248 248 248
187 187 188 190 191 191 191 191 188 183 177 173 170 169 170 169 172 176 174 175 169 161 185 185 177 171 249 188 186 191 195 187 178 178 177 172 168 162 146 131 144 141 142 155 151 159 156 138 148 228 178 198 225 204 207 218 38 40 135 188 219 214 251 162 104 123 199 189 240 240 244 249 257 262 261 260 251 234 230 235 239 243 246 251 253 251 248 246
182 184 185 187 190 190 191 190 186 181 175 172 164 157 158 160 158 173 182 183 181 186 276 182 186 193 75 172 182 179 173 173 176 179 179 174 165 158 144 139 157 176 195 169 149 173 166 138 191 215 207 204 209 205 196 46 40 22 23 12 341 358 12 92 98 17 355 320 245 244 251 255 260 263 263 265 262 251 243 239 239 240 242 245 249 251 250 249
176 180 184 187 191 191 192 190 187 181 177 174 164 152 152 167 161 161 179 192 203 214 241 178 187 199 171 176 180 171 154 156 174 183 180 173 165 155 157 158 157 200 188 96 94 113 107 194 227 219 216 191 185 160 95 51 37 39 18 1 351 290 167 73 84 193 50 28 266 273 278 270 264 269 273 270 266 257 248 245 245 244 244 245 248 253 255 255
174 177 182 188 192 194 195 192 189 185 180 177 168 155 155 176 176 171 171 186 216 219 232 186 183 194 193 186 178 169 149 143 168 184 178 171 169 163 168 176 178 180 144 91 91 90 109 238 241 202 92 68 62 66 67 29 31 76 102 16 334 258 156 73 58 180 100 138 271 303 302 282 271 266 268 263 256 254 248 243 244 244 243 243 246 254 257 257
174 174 180 188 192 195 198 194 191 189 187 181 174 165 156 177 180 178 179 172 209 212 221 191 177 192 187 178 175 169 157 156 169 182 178 171 176 178 167 180 202 159 148 145 154 150 170 227 246 76 75 77 63 51 76 61 39 161 171 137 237 239 103 59 346 276 219 209 268 320 309 283 274 257 253 248 245 251 253 248 247 246 243 243 248 255 256 254
170 167 174 183 190 196 198 198 195 194 193 189 184 177 141 167 180 181 190 210 80 197 205 191 173 183 184 172 174 173 165 160 162 181 180 171 174 181 173 189 205 178 169 184 192 200 177 180 41 65 55 121 98 92 153 167 214 216 199 190 223 228 108 108 41 295 246 223 292 331 311 281 274 253 258 253 241 246 254 251 248 245 241 243 247 252 253 250
169 164 169 176 184 192 194 199 200 198 196 195 195 190 155 149 175 177 190 220 0 178 195 197 184 183 187 178 175 173 160 141 142 178 182 171 168 171 173 196 197 193 191 186 202 224 197 95 103 102 97 165 121 152 197 188 222 235 211 206 239 271 83 91 36 359 336 318 281 6 333 290 305 300 291 303 278 254 255 246 242 242 238 240 245 250 252 252
172 165 167 173 177 183 185 190 200 202 200 200 202 201 201 178 171 180 183 217 269 169 166 192 192 191 192 181 165 154 147 165 152 175 181 173 170 167 157 177 166 197 200 183 196 228 144 125 102 119 131 119 118 240 202 175 225 269 261 324 329 49 78 83 19 16 0 292 248 124 61 279 305 297 280 288 289 271 262 253 250 248 239 239 248 254 258 260
189 176 168 176 173 172 173 179 193 193 192 204 208 203 205 194 170 175 165 0 254 171 144 174 187 188 183 172 163 153 133 165 151 170 180 178 177 174 172 155 135 235 243 106 108 150 117 140 123 118 131 124 153 244 184 165 169 260 268 319 16 82 92 109 62 229 236 319 287 170 161 257 283 281 274 268 268 265 258 257 257 252 243 240 247 254 259 261
201 191 183 186 172 164 168 170 177 173 178 202 208 200 196 186 169 160 157 281 198 154 143 163 168 172 168 164 169 161 119 149 146 173 180 180 179 176 204 193 161 189 202 126 156 291 78 155 169 153 152 156 162 264 200 165 152 249 256 318 81 93 93 116 96 266 304 12 304 206 152 259 258 265 279 264 259 267 254 247 251 250 245 237 231 232 240 244
203 195 192 190 175 175 180 168 165 175 185 196 195 194 187 173 158 132 200 232 151 127 138 156 156 161 157 157 169 154 123 141 137 165 173 178 177 167 183 231 217 187 187 174 154 358 26 150 189 153 161 179 132 28 351 140 136 205 206 89 84 91 75 75 96 56 15 336 256 197 166 256 262 235 246 249 252 255 247 250 258 242 214 194 190 207 223 228
203 199 197 191 185 190 187 174 172 181 190 189 185 184 176 165 154 151 198 211 151 103 112 145 154 158 156 151 162 163 142 103 105 141 155 170 173 171 127 137 330 134 152 76 81 86 75 70 354 139 132 128 119 67 23 49 123 156 167 102 84 77 58 43 84 80 36 279 262 194 181 207 280 250 214 221 229 217 233 251 185 97 116 143 167 190 204 202
212 206 200 194 195 195 190 186 185 182 188 191 178 171 165 157 150 196 188 204 339 125 115 146 150 153 164 160 155 177 157 106 136 144 136 152 166 182 162 136 21 55 55 359 59 112 121 94 21 155 131 117 113 71 30 35 97 128 140 116 93 23 32 23 8 65 201 250 293 270 190 194 247 264 302 326 14 102 177 195 126 115 120 136 159 192 220 240
220 212 198 194 198 199 198 197 190 184 189 181 168 162 155 144 250 228 190 91 223 177 155 172 160 156 176 172 153 170 157 132 161 164 148 157 169 183 193 184 151 116 330 215 189 39 185 201 151 114 154 167 132 80 38 9 2 109 147 122 107 339 17 350 254 158 225 239 275 327 357 247 242 255 303 311 318 307 249 82 83 101 132 156 196 253 265 261
221 216 210 209 209 205 202 201 194 191 192 171 164 159 140 177 202 211 196 159 194 186 139 155 161 162 174 176 160 159 154 147 171 176 160 161 178 194 210 209 181 182 214 179 165 130 253 273 141 106 334 203 182 137 128 289 234 189 168 142 146 166 188 238 229 212 236 248 298 327 350 268 267 275 257 259 272 286 314 330 330 330 315 295 295 297 281 265
218 219 217 220 223 210 202 209 206 201 191 169 160 149 171 202 200 196 199 185 97 66 103 137 150 158 171 181 159 151 149 160 168 170 163 162 183 201 211 221 207 208 193 165 175 172 206 281 184 169 177 183 193 193 170 156 175 199 188 162 175 172 188 212 190 207 228 244 312 319 288 206 220 275 255 252 283 308 320 306 292 299 299 296 300 296 278 263
213 218 215 214 219 209 203 216 220 221 201 169 139 122 191 200 205 192 191 160 118 111 112 132 140 153 174 185 146 156 141 154 172 174 173 175 194 197 191 206 210 206 179 189 209 171 199 244 190 163 163 168 184 204 175 132 150 221 201 189 218 197 174 183 164 177 153 14 295 231 246 221 204 270 273 275 282 280 285 286 276 276 279 283 290 294 289 278
209 213 211 210 215 214 212 215 215 216 197 158 123 189 201 204 215 182 173 124 143 135 123 132 141 159 172 156 213 199 77 81 172 176 187 194 209 203 195 197 197 199 190 185 199 159 180 242 347 69 149 168 182 205 176 139 168 208 173 202 216 128 111 167 262 57 104 268 263 188 259 283 305 287 261 240 254 255 255 259 258 269 278 284 289 298 303 297
206 210 213 209 211 217 216 210 202 196 179 147 153 210 205 311 308 320 340 16 136 141 138 145 166 181 175 154 189 195 147 105 168 174 183 191 217 210 209 209 193 197 201 195 212 185 160 208 309 38 151 192 7 31 109 62 88 132 176 206 131 44 35 139 216 355 126 247 261 187 251 282 308 281 262 190 276 261 230 236 240 250 255 259 277 291 297 296
201 211 222 216 211 215 214 207 200 192 174 145 197 225 209 342 295 9 354 338 139 150 165 178 171 181 183 176 178 178 168 157 173 186 180 177 221 207 200 211 198 197 202 198 210 260 154 193 287 356 353 300 27 58 155 25 54 106 189 235 100 123 248 140 170 232 211 239 268 249 255 264 239 250 283 347 318 282 251 248 233 219 215 232 265 286 294 294
190 198 235 224 213 213 218 215 200 187 170 139 196 214 206 239 271 298 329 332 330 181 196 194 189 197 194 185 166 165 175 175 169 179 186 179 211 200 189 196 201 196 195 193 201 218 147 183 239 324 326 342 53 190 196 161 30 29 -0 343 81 150 185 169 183 196 185 216 251 266 270 258 237 242 272 280 266 258 256 257 235 187 174 256 320 314 300 296
175 181 245 226 213 214 218 210 188 177 156 148 186 186 178 205 248 252 257 297 2 19 230 213 208 207 204 203 173 156 180 187 172 179 201 182 187 218 190 181 184 185 185 190 197 172 143 188 206 318 335 307 165 215 192 169 164 168 287 216 191 146 119 142 243 196 173 196 231 253 266 261 245 220 228 236 244 259 230 124 117 86 41 356 340 315 292 291
171 204 230 207 206 210 203 183 170 177 137 162 181 189 190 190 221 231 234 239 264 31 31 21 247 219 219 218 194 154 174 191 181 182 201 189 193 243 192 172 172 164 168 189 199 178 163 182 173 147 291 219 213 214 194 183 185 188 194 196 197 189 150 182 247 223 176 187 207 217 260 270 256 179 206 245 29 33 63 67 13 341 336 325 315 296 281 298
186 219 195 185 194 196 187 167 156 196 207 189 188 189 191 202 210 195 207 220 225 309 43 52 60 314 321 245 171 121 160 187 196 189 194 202 202 206 186 176 170 163 158 180 200 190 171 156 166 176 195 204 220 207 180 181 185 196 217 208 197 191 168 183 216 214 189 209 229 227 262 272 265 223 244 290 317 337 0 357 318 308 310 306 297 286 289 311
202 201 157 181 195 190 182 181 194 194 210 205 199 191 181 188 197 175 173 191 199 200 190 170 137 180 296 11 50 31 162 194 213 199 189 199 199 163 166 169 164 162 160 167 190 181 157 152 184 197 180 80 30 25 33 33 75 215 244 212 181 198 191 188 194 174 182 196 207 230 239 266 272 261 231 266 257 222 258 289 291 287 289 288 283 280 287 297
207 216 218 195 193 188 185 195 197 198 210 197 201 208 195 193 194 183 173 180 184 181 189 207 195 180 220 97 103 316 318 195 249 255 164 190 159 79 131 155 164 167 162 160 172 165 163 173 161 159 184 114 18 8 0 346 317 226 236 199 192 201 173 156 164 140 220 209 195 211 231 255 269 285 86 180 157 186 249 266 270 270 276 287 290 288 290 293
204 217 232 213 198 195 202 224 211 204 208 197 200 208 202 202 203 198 189 181 186 181 172 203 208 194 195 180 167 255 278 148 267 334 12 0 70 54 84 144 169 164 118 103 149 160 171 202 165 172 205 203 197 212 214 228 217 224 230 203 204 200 169 153 145 158 223 222 207 219 237 254 266 277 295 269 119 196 249 251 269 276 283 293 295 295 295 291
206 206 202 208 211 213 222 234 242 252 207 198 203 206 203 205 203 203 202 190 188 187 179 187 193 189 189 188 200 233 238 225 227 274 315 272 162 39 32 107 99 89 104 105 123 143 133 300 194 197 219 207 186 199 193 158 146 196 222 211 209 206 190 178 163 192 219 226 228 234 237 257 270 273 273 274 295 301 283 285 293 289 291 298 299 297 294 290
213 213 188 178 204 230 238 229 230 249 220 201 196 194 203 205 196 199 208 205 192 192 197 188 181 185 184 180 187 207 211 208 209 224 243 244 149 30 6 82 69 81 110 101 90 108 101 265 236 227 240 241 248 0 126 129 160 203 213 207 212 216 201 196 212 223 221 220 243 244 235 251 266 271 272 278 293 292 287 294 295 295 302 307 306 302 297 295
214 231 217 198 188 212 223 215 213 219 228 222 208 192 197 203 202 195 202 212 204 198 205 206 192 197 193 183 183 189 189 192 200 212 222 220 183 86 41 36 47 90 104 65 45 90 126 216 244 241 255 265 282 338 5 35 210 227 216 202 204 210 207 209 225 235 229 225 251 262 257 253 262 272 279 290 299 288 292 299 298 298 300 298 295 293 291 291
222 245 227 217 223 226 213 205 202 212 223 230 224 210 197 199 205 197 178 187 208 204 205 209 203 203 202 192 189 193 189 188 199 205 201 196 190 177 163 71 22 73 81 62 30 60 121 194 183 68 284 276 272 291 307 296 297 300 279 263 233 220 217 217 228 237 237 243 256 265 267 263 261 271 287 296 291 286 290 293 291 290 289 286 285 285 285 286
217 226 226 232 258 274 242 211 189 202 220 222 230 231 215 208 208 199 180 176 185 193 198 210 211 200 202 206 205 210 204 195 207 207 188 190 200 202 200 179 134 103 96 101 92 50 163 190 122 96 287 274 266 261 267 267 266 266 269 272 259 245 237 232 234 237 239 246 250 254 264 268 267 275 289 286 283 283 286 285 283 282 281 281 283 284 284 283
218 214 231 266 260 243 256 227 184 189 209 212 221 224 225 223 211 201 193 187 187 184 188 204 214 200 201 211 212 218 218 211 214 134 138 167 177 180 243 198 150 142 149 151 150 149 171 185 109 112 200 256 250 234 231 242 254 261 257 248 241 239 240 240 236 228 232 239 245 251 258 263 270 276 274 274 278 280 278 278 279 278 277 279 283 282 281 280
220 217 226 256 254 216 226 234 194 197 203 210 218 216 219 230 221 209 205 192 193 198 196 198 201 194 208 218 219 227 227 206 144 103 106 107 93 88 307 288 152 150 161 161 147 156 168 168 149 149 202 253 242 204 195 207 220 241 239 235 234 234 235 240 239 234 233 234 235 242 245 250 267 275 266 265 272 272 270 273 276 277 279 283 282 279 279 278